Regional Weather Roundup
Issued by NWS

Home | Current Version | Previous Version | Text Only | Print | Product List | Glossary Off
Versions: 1 2 3 4 5 6 7 8 9 10 11 12 13 14 15 16 17 18 19 20 21 22 23 24 25 26 27 28 29 30 31 32 33 34 35 36 37 38 39 40 41 42 43 44 45 46 47 48 49 50

295
ASUS43 KDMX 272006
RWRIA

WEATHER ROUNDUP FOR IOWA
NATIONAL WEATHER SERVICE DES MOINES IA
300 PM CDT MON MAR 27 2017

NOTE: "FAIR" INDICATES FEW OR NO CLOUDS BELOW 12,000 FEET WITH NO
SIGNIFICANT WEATHER AND/OR OBSTRUCTIONS TO VISIBILITY.

* - THESE STATIONS ARE NOT NWS STATIONS...THUS NOT UNDER NWS
QUALITY CONTROL.  THEY ALSO DO NOT REPORT WEATHER SUCH
AS PRECIPITATION OR FOG.

IAZ001>003-012>014-020>022-031>034-043>046-272100-
   NORTHWEST IOWA

CITY           SKY/WX    TMP DP  RH WIND       PRES   REMARKS
CARROLL *      CLOUDY    48  41  76 N10       29.96F
CHEROKEE *     CLOUDY    48  40  74 N6        29.98F
DENISON *      CLOUDY    48  39  71 NE8       29.98F
LE MARS *      CLOUDY    54  39  58 NE8       29.97F
ORANGE CITY *  CLOUDY    52  41  66 E3        29.96F
SHELDON *      CLOUDY    48  37  66 NE6       29.96F
SIOUX CITY     PTSUNNY   57  41  55 CALM      29.96F
SPENCER        CLOUDY    48  38  68 NE5       29.98S
STORM LAKE *   CLOUDY    46  39  76 NE7       29.97F
$$

IAZ055>058-069>071-079>083-090>094-272100-
   SOUTHWEST IOWA

CITY           SKY/WX    TMP DP  RH WIND       PRES   REMARKS
ATLANTIC *     CLOUDY    50  41  71 N7        29.96F
AUDUBON *      CLOUDY    50  43  76 N10       29.97S
CLARINDA *     CLOUDY    50  45  81 N7        29.98F
COUNCIL BLFS *   N/A     48  43  81 NE8       29.96F
CRESTON *      CLOUDY    48  43  81 N8        29.96S
HARLAN  *      CLOUDY    50  45  81 NE8G15    29.99F
LAMONI         CLOUDY    48  44  86 N9        29.93S
RED OAK *      CLOUDY    50  43  76 N9        29.96F
SHENANDOAH *   CLOUDY    50  43  76 N10       29.97F
$$

IAZ047>049-059>061-072>074-084-272100-
   CENTRAL IOWA

CITY           SKY/WX    TMP DP  RH WIND       PRES   REMARKS
AMES           CLOUDY    49  43  80 N7        29.95F
ANKENY *       CLOUDY    48  43  81 N10       29.96S
BOONE *        CLOUDY    48  43  81 N7        29.94F
CHARITON *     PTSUNNY   48  45  87 N12       29.93S
DES MOINES     CLOUDY    49  42  77 N7        29.95F
GRINNELL*      CLOUDY    47  43  86 N6        29.95S
MARSHALLTOWN   CLOUDY    47  42  83 N6        29.94F
NEWTON *       CLOUDY    48  43  81 N8        29.93F
PELLA *        CLOUDY    48  45  87 N5        29.94F
PERRY *        CLOUDY    50  43  76 NW10      29.96F
$$

IAZ004>006-015-016-023>025-035-036-272100-
   NORTH CENTRAL IOWA

CITY           SKY/WX    TMP DP  RH WIND       PRES   REMARKS
ALGONA *       CLOUDY    46  43  87 NE8       29.97F
CLARION *      CLOUDY    46  43  87 NW3       29.96F
ESTHERVILLE    CLOUDY    48  40  73 N8        29.96F
FORT DODGE *   CLOUDY    48  39  71 N7        29.96F
MASON CITY     CLOUDY    47  39  74 N8        29.96F
FOREST CITY *  CLOUDY    48  41  76 NE3       29.96S
WEBSTER CITY * CLOUDY    46  41  81 N7        29.94F
IOWA FALLS *   CLOUDY    48  42  77 CALM      29.96S
$$

IAZ007>011-017>019-026>030-037>042-050>054-066-272100-
   NORTHEAST IOWA

CITY           SKY/WX    TMP DP  RH WIND       PRES   REMARKS
CEDAR RAPIDS   CLOUDY    48  46  93 N8        29.92S
CHARLES CITY * CLOUDY    46  43  87 N7        29.95S
CLINTON *      CLOUDY    51  46  83 CALM      29.92F
DECORAH *      CLOUDY    46  41  81 NW5       29.93S
DUBUQUE        CLOUDY    49  43  80 NE3       29.92F
MONTICELLO *   CLOUDY    50  45  81 N3        29.92F
OELWEIN *      CLOUDY    50  45  81 CALM      29.94S
WATERLOO       CLOUDY    50  41  71 NW5       29.94F
$$

IAZ064-065-067-068-078-272100-
   EAST CENTRAL IOWA

CITY           SKY/WX    TMP DP  RH WIND       PRES   REMARKS
DAVENPORT      CLOUDY    51  45  79 N5        29.91F
IOWA CITY      CLOUDY    52  45  77 N7        29.93F
MUSCATINE *    CLOUDY    52  46  82 CALM      29.92S
QUAD CITIES    CLOUDY    52  46  80 N5        29.90F
$$

IAZ062-063-075>077-085>089-095>099-272100-
   SOUTHEAST IOWA

CITY           SKY/WX    TMP DP  RH WIND       PRES   REMARKS
BURLINGTON     CLOUDY    53  50  89 N8        29.88F
FAIRFIELD *    CLOUDY    52  46  82 N8        29.91F
FORT MADISON * LGT RAIN  54  52  94 N6        29.89F
KEOKUK *       CLOUDY    54  50  87 N10       29.87F
OSKALOOSA *    CLOUDY    48  44  86 N7        29.93S
CENTERVILLE *  CLOUDY    46  46 100 N8        29.93F
OTTUMWA        CLOUDY    50  46  86 N10       29.92S
WASHINGTON *   CLOUDY    52  48  87 VRB6      29.92F FOG
$$

ABBREVIATIONS USED IN REMARKS
   TC - TEMPERATURES IN CELSIUS
  WCI - WIND CHILL INDEX
   HX - HEAT INDEX
  VSB - VISIBILITY
$$





USA.gov is the U.S. government's official web portal to all federal, state and local government web resources and services.